Location: Observatoire
(46.1952°N, 5.3391°E)
Time: 06:16:21
(UTC+01:00)

A-11 Canister half - Pass Details

Date: 24 February 2026
Orbit: 1524 x 1683 km, 47.3° (Epoch: 13 March)

Event Time Altitude Azimuth Distance (km) Brightness Sun altitude
Rises 15:51:20 0° 238° (WSW) 4,758 13.1 21.6°
Reaches altitude 10° 15:54:27 10° 236° (SW) 3,755 13.2 21.1°
Maximum altitude 16:03:50 71° 155° (SSE) 1,609 9.6 19.9°
Drops below altitude 10° 16:13:04 10° 73° (ENE) 3,693 10.5 18.6°
Sets 16:16:06 0° 72° (ENE) 4,676 11.0 18.2°
